Wind_Speed
15 16 13 12 12 11 11 8 6 4 3 5 15 20 19 16 17 18 16 17 18 14 11 11 11 8 9 7 5 5 10 11 13 13 14 16 16 16 16 16 15 15 15 16 16 16 16 17 17
9 13 17 16 15 8 18 11 9 8 5 8 16 19 19 19 18 18 16 16 14 14 12 11 10 9 8 9 6 4 5 9 9 10 11 13 14 14 14 15 14 13 13 13 14 13 13 15 15
8 9 14 20 18 13 18 14 13 11 7 11 22 19 19 18 20 21 19 19 17 15 12 9 7 8 8 7 6 4 3 4 7 7 8 9 10 11 12 13 13 11 10 10 10 10 11 13 13
11 10 9 17 19 21 22 18 14 12 6 10 25 22 19 16 18 20 20 19 19 16 14 13 10 9 9 8 8 6 3 2 3 5 6 7 8 8 8 10 10 9 8 7 7 8 9 10 11
10 10 11 11 21 25 24 21 17 13 9 17 27 25 16 16 15 16 17 19 18 16 14 14 13 12 11 11 10 9 7 4 2 2 4 4 5 6 6 6 7 7 6 5 4 5 6 8 9
12 12 9 13 18 27 26 24 20 16 12 19 30 25 22 22 19 17 16 18 17 15 15 15 15 13 12 12 11 10 9 6 5 4 2 3 2 3 4 5 5 5 4 4 4 4 6 6 7
18 18 14 13 20 24 26 21 22 21 18 18 31 29 27 22 22 23 21 21 20 18 19 18 17 15 14 13 13 12 12 10 9 7 6 4 3 1 1 2 3 3 2 2 4 7 7 6 6
20 21 19 18 18 23 23 23 22 24 24 21 33 30 29 29 27 21 22 24 22 22 21 20 20 18 16 14 14 13 13 13 12 9 6 5 5 4 3 2 3 4 4 3 4 6 8 8 7
21 21 21 23 24 27 25 25 23 23 26 29 34 31 32 35 35 29 26 24 24 22 22 24 22 22 20 18 16 15 15 16 14 12 10 9 7 7 6 4 3 3 5 5 5 6 7 8 7
12 14 21 26 30 32 31 29 27 25 26 27 33 33 32 32 35 32 29 27 25 25 27 25 26 23 23 22 21 20 20 18 16 14 13 12 11 10 9 8 6 6 4 5 6 7 7 7 8
8 10 15 19 25 31 33 32 30 29 28 31 29 33 31 31 32 32 30 28 27 24 22 21 28 29 27 26 25 25 24 23 20 17 15 15 14 13 12 11 11 9 7 6 6 7 8 8 9
14 13 15 16 18 21 26 31 31 31 30 33 29 31 33 34 34 36 27 30 27 16 22 24 25 26 28 26 26 26 26 25 23 21 20 19 17 16 15 13 12 12 10 8 7 8 9 10 11
17 19 17 17 17 19 22 25 29 28 33 35 32 33 33 32 33 34 32 30 28 23 18 24 23 24 24 26 27 27 27 27 25 24 23 22 20 18 17 14 13 12 11 9 9 9 10 12 12
21 22 22 20 19 19 22 24 25 28 34 33 33 35 35 34 34 33 32 23 24 21 18 20 21 22 24 25 27 28 29 30 28 27 26 24 23 21 19 17 15 13 11 10 10 11 12 13 13
26 27 25 24 23 20 22 23 22 27 30 31 32 34 35 34 37 39 39 37 32 29 28 25 30 25 23 27 29 30 29 30 29 29 28 27 25 23 22 19 18 15 13 11 10 10 12 13 12
30 30 28 28 26 26 23 22 25 26 25 28 31 33 36 38 38 38 40 39 39 36 33 33 22 19 25 28 29 30 32 31 31 31 30 29 28 25 23 22 21 20 18 14 13 13 12 16 17
33 32 31 32 30 31 26 23 24 27 26 28 29 33 35 37 40 41 44 43 38 38 36 36 35 32 31 30 33 34 34 35 35 35 35 33 29 26 24 23 22 21 22 21 19 18 18 20 20
38 35 36 34 34 34 30 27 26 28 27 30 32 32 33 36 37 41 44 45 45 47 45 43 43 44 46 40 40 41 40 41 52 44 44 35 28 26 25 24 24 24 24 27 26 23 25 25 24
41 37 37 37 39 36 35 31 29 28 28 30 33 33 33 33 34 38 42 45 47 47 47 46 47 44 36 33 32 38 36 43 47 37 29 31 31 29 26 26 25 27 27 28 32 31 30 31 28
43 42 39 39 40 39 40 36 34 33 32 31 31 32 33 33 34 36 40 43 47 48 47 46 44 39 38 35 35 38 39 40 44 31 15 17 26 24 32 23 28 29 29 31 33 35 36 36 32
43 43 41 38 41 40 41 37 36 39 36 35 32 32 32 33 33 34 35 37 39 45 48 48 46 43 41 40 39 38 40 34 32 28 29 24 28 28 27 28 31 37 37 34 37 41 42 40 37
44 44 42 41 39 36 43 32 42 41 40 39 36 34 34 34 35 33 34 37 39 41 44 46 46 45 45 43 40 42 45 42 43 43 40 39 40 38 39 37 37 38 37 39 42 43 43 43 40
44 46 44 42 40 39 45 41 24 44 42 42 41 38 37 37 37 36 33 35 38 39 40 42 44 47 48 48 47 43 44 44 46 47 46 47 45 46 46 49 45 43 42 40 45 47 48 45 44
46 45 45 44 41 45 41 43 26 35 48 42 44 43 41 40 40 38 37 37 38 40 40 40 42 43 45 46 48 50 50 50 51 53 50 50 50 52 53 54 51 50 48 48 48 48 47 48 48
44 43 41 39 41 46 29 37 33 45 50 43 44 45 45 45 42 41 41 39 38 40 42 44 44 44 45 45 46 48 49 50 51 52 52 53 51 54 55 54 51 50 51 52 52 51 50 49 47
38 35 28 25 27 25 36 38 38 48 47 46 45 45 46 46 45 43 42 42 40 40 43 45 47 48 48 48 49 48 51 50 48 49 51 51 50 51 51 52 51 50 53 55 56 55 56 53 52
37 34 37 37 35 36 26 36 41 43 44 45 45 46 45 46 46 46 46 44 43 43 42 43 48 52 53 52 53 53 53 52 52 51 50 53 54 54 50 53 52 52 54 58 59 62 60 57 54
39 37 37 41 41 38 31 34 31 46 45 45 45 45 47 48 50 49 48 46 45 47 46 46 47 49 54 56 56 56 57 55 56 56 57 57 55 54 55 56 54 59 60 62 63 55 57 56 54
38 39 40 42 43 40 36 27 34 39 37 37 38 37 40 43 46 45 46 47 49 50 50 49 49 50 52 56 59 59 59 61 61 60 59 59 60 53 56 55 56 60 59 66 76 65 50 53 54
45 44 47 46 42 43 44 40 43 43 43 43 41 42 43 44 45 46 48 47 47 49 50 55 55 52 53 55 58 60 63 63 63 62 62 60 58 58 55 55 55 61 67 67 69 62 65 52 56
Wind_Direction
233 226 224 230 235 242 245 247 252 283 334 218 180 181 186 189 188 191 190 184 185 185 196 183 157 141 136 123 114 109 103 98 90 88 90 90 84 81 81 79 74 71 70 74 75 73 74 73 70
238 233 224 227 227 226 261 237 235 258 254 219 191 186 182 176 185 186 188 190 196 192 197 193 179 153 152 142 129 129 98 103 101 89 88 90 92 89 85 82 78 71 67 65 70 71 68 68 66
248 236 223 222 226 218 246 235 246 253 268 215 192 185 188 184 185 188 189 187 198 206 204 213 200 172 161 157 140 103 89 79 100 102 84 80 85 90 90 87 86 82 72 62 65 70 64 62 62
256 243 229 221 219 233 242 241 241 254 246 228 194 187 189 200 197 196 196 193 200 206 217 209 207 196 173 173 163 147 129 122 89 95 99 86 70 72 79 84 81 81 78 70 56 59 60 60 56
259 248 232 219 219 229 239 242 234 241 234 203 195 189 194 206 212 210 202 199 202 204 217 221 211 199 196 188 188 176 172 173 168 110 102 103 86 67 60 68 77 70 60 55 40 29 50 56 53
253 251 239 216 216 228 239 241 236 227 219 218 197 187 196 203 206 214 213 211 207 208 218 224 220 208 205 205 200 198 191 193 195 189 157 140 109 81 51 44 54 65 54 11 356 349 0 20 44
253 249 242 228 227 232 237 243 241 226 223 219 191 193 196 201 208 203 210 215 214 209 218 226 228 222 214 219 216 215 208 203 208 211 202 195 188 170 46 10 23 18 14 347 327 325 332 347 0
251 251 245 242 238 239 244 244 243 232 226 214 192 202 218 217 222 226 220 213 213 212 218 222 229 228 230 224 228 227 228 222 223 224 223 227 227 216 222 265 333 357 338 321 307 307 315 323 336
253 254 252 244 241 246 249 248 247 243 230 210 210 232 240 236 227 233 230 219 214 215 226 222 225 228 230 231 236 236 236 237 228 225 236 241 249 253 239 244 270 316 329 311 296 297 303 307 313
262 255 247 245 243 245 249 250 251 251 246 232 227 229 233 237 234 246 243 242 232 219 223 229 230 230 230 231 231 235 238 237 237 231 229 233 244 255 261 262 278 288 304 298 282 284 287 289 293
277 252 258 249 248 248 251 250 249 247 249 250 234 223 224 240 250 250 243 242 246 237 236 232 235 230 231 231 231 233 235 237 235 233 235 236 238 245 252 256 262 269 284 282 265 271 277 277 274
273 270 261 267 255 249 250 253 248 244 243 248 247 239 233 235 241 250 239 242 234 247 260 248 241 245 237 237 236 237 241 240 237 230 231 234 238 243 246 246 254 263 267 270 260 260 272 275 270
270 269 268 261 259 251 248 249 249 243 240 241 243 245 241 236 243 239 251 249 227 259 251 245 256 247 248 244 238 240 244 244 244 239 233 232 234 237 243 244 245 251 256 257 255 258 261 268 268
265 265 267 264 259 264 259 253 253 244 243 242 240 245 245 243 239 244 254 250 243 243 258 258 250 254 253 257 251 244 243 246 243 244 242 237 234 234 237 237 239 243 241 244 254 263 266 263 264
264 264 264 265 262 261 268 260 252 251 252 247 243 242 246 244 240 243 247 256 255 255 270 267 262 265 266 261 257 253 245 245 244 242 240 239 235 232 233 234 234 234 235 235 245 257 265 265 263
262 261 263 262 264 258 258 261 257 257 253 252 249 245 244 247 246 245 246 249 258 263 266 259 254 265 267 258 253 249 249 246 244 241 238 236 233 231 232 234 235 236 235 235 241 246 258 261 259
260 260 259 261 260 262 260 256 265 260 252 253 255 249 246 243 246 247 249 247 252 249 250 247 253 266 272 275 253 252 253 253 249 240 233 231 229 229 231 237 239 241 243 240 242 246 248 255 262
256 254 257 260 258 260 261 257 256 262 257 249 250 256 250 248 247 247 249 249 248 249 250 248 251 262 270 268 263 261 249 257 248 234 236 226 226 228 232 238 242 246 248 249 244 242 250 255 259
258 255 254 255 258 259 262 259 260 260 259 255 254 255 256 252 253 250 249 251 253 251 251 252 254 261 260 265 266 267 263 262 279 295 279 219 226 227 229 239 248 252 253 258 262 257 254 257 261
254 256 256 255 256 258 260 260 259 258 259 257 256 256 255 252 253 249 248 249 251 253 253 255 255 255 253 258 259 268 264 268 273 283 278 251 244 248 234 250 253 254 259 263 264 266 266 268 268
254 255 256 254 255 257 260 260 258 258 258 257 256 257 258 257 251 251 249 247 246 250 252 253 256 255 251 253 255 259 258 261 263 266 262 247 245 254 261 259 259 260 255 264 269 266 267 269 273
255 253 254 254 254 257 255 258 260 257 259 261 259 256 255 256 257 252 249 248 244 244 248 251 254 256 258 257 254 253 260 264 267 270 263 268 261 262 271 267 264 271 263 259 261 268 270 268 270
253 257 256 256 254 251 258 254 247 257 253 256 259 258 257 257 255 255 253 252 252 247 245 247 247 250 255 257 260 258 255 257 262 264 269 271 274 277 275 273 271 268 269 260 256 259 262 264 270
254 256 257 257 256 255 255 258 250 256 254 253 253 257 256 255 257 257 253 251 252 252 249 246 248 249 249 250 254 259 260 261 262 265 267 268 268 269 271 271 271 273 272 266 260 256 260 262 264
255 256 260 261 258 258 252 250 237 247 258 254 255 256 257 257 255 255 255 251 249 251 251 249 249 249 251 253 254 255 257 258 261 264 264 265 265 266 268 269 271 272 271 266 265 263 258 256 257
255 251 246 252 253 261 255 248 247 252 256 257 253 252 255 257 258 258 257 257 253 247 248 249 248 249 250 252 252 253 256 259 258 258 260 264 264 269 266 266 265 265 267 268 264 261 258 254 255
252 245 242 242 231 226 243 258 255 255 252 255 254 254 253 254 256 257 257 254 252 252 246 244 246 246 248 250 251 252 251 251 252 253 252 257 261 263 263 262 262 265 266 269 263 256 256 251 250
256 259 255 252 246 243 244 239 257 263 257 257 258 256 255 256 256 255 256 255 251 250 249 246 243 243 243 245 248 249 251 251 250 250 252 256 263 265 264 261 262 259 259 260 263 262 250 248 247
260 263 263 261 262 262 256 247 256 259 260 255 253 254 252 253 255 256 257 255 255 252 248 246 246 243 243 242 242 245 247 247 247 250 252 256 260 264 262 260 259 262 263 266 263 253 257 248 248
264 262 261 262 263 267 262 263 266 266 267 266 262 260 260 256 255 258 256 255 255 251 250 247 244 243 245 243 243 243 243 246 248 251 253 253 253 256 261 260 261 265 267 277 286 274 268 247 257
Height
5915 5916 5918 5918 5921 5921 5921 5921 5921 5921 5921 5920 5920 5922 5923 5926 5930 5934 5934 5934 5934 5935 5937 5937 5936 5937 5938 5939 5941 5942 5941 5940 5940 5940 5938 5938 5938 5938 5937 5937 5937 5936 5936 5936 5935 5935 5934 5933 5933
5912 5914 5916 5916 5918 5922 5919 5919 5920 5919 5921 5921 5921 5923 5924 5925 5927 5931 5932 5933 5935 5935 5936 5937 5937 5937 5938 5938 5941 5942 5943 5941 5941 5941 5940 5939 5939 5939 5939 5939 5938 5938 5937 5938 5938 5937 5936 5936 5935
5910 5911 5913 5913 5914 5919 5918 5918 5918 5918 5919 5919 5921 5923 5925 5925 5926 5928 5930 5931 5934 5935 5936 5937 5938 5938 5938 5939 5941 5943 5943 5944 5943 5943 5942 5942 5941 5941 5941 5940 5939 5939 5939 5938 5938 5938 5937 5937 5936
5908 5909 5910 5911 5911 5914 5914 5915 5917 5916 5918 5917 5919 5921 5923 5925 5926 5928 5929 5931 5932 5934 5935 5935 5936 5938 5938 5939 5940 5941 5943 5944 5944 5944 5943 5943 5943 5942 5942 5942 5941 5940 5940 5939 5939 5939 5938 5938 5937
5904 5906 5907 5909 5909 5909 5910 5911 5914 5916 5916 5916 5917 5919 5922 5924 5926 5927 5928 5929 5930 5932 5933 5934 5935 5935 5937 5937 5938 5939 5941 5943 5944 5944 5944 5943 5943 5943 5942 5943 5943 5942 5941 5940 5939 5939 5939 5939 5938
5902 5903 5905 5906 5906 5905 5906 5909 5911 5914 5915 5915 5916 5918 5920 5921 5922 5925 5926 5928 5928 5930 5931 5932 5933 5934 5934 5936 5937 5938 5939 5941 5942 5943 5943 5943 5943 5942 5942 5942 5943 5943 5941 5940 5939 5938 5938 5938 5938
5898 5899 5902 5903 5902 5901 5902 5906 5908 5912 5913 5913 5915 5916 5918 5919 5920 5920 5922 5926 5926 5927 5929 5930 5932 5932 5932 5934 5935 5936 5937 5938 5940 5942 5942 5941 5941 5941 5941 5941 5941 5942 5942 5941 5939 5938 5937 5937 5937
5893 5894 5897 5899 5899 5897 5899 5902 5905 5908 5910 5913 5914 5915 5916 5919 5918 5920 5922 5922 5923 5923 5925 5927 5929 5930 5931 5932 5933 5934 5936 5936 5938 5939 5941 5940 5939 5939 5939 5939 5939 5940 5940 5940 5939 5938 5937 5936 5936
5888 5891 5893 5894 5894 5892 5893 5897 5901 5903 5907 5910 5912 5912 5913 5915 5916 5918 5919 5920 5919 5919 5922 5924 5925 5927 5928 5930 5931 5932 5933 5935 5935 5936 5938 5938 5938 5938 5938 5937 5937 5938 5938 5938 5937 5937 5937 5936 5935
5885 5886 5886 5886 5887 5887 5888 5891 5896 5900 5901 5906 5907 5908 5909 5911 5914 5916 5918 5918 5917 5917 5919 5920 5922 5923 5924 5926 5927 5928 5929 5931 5933 5933 5934 5934 5935 5936 5937 5937 5936 5935 5935 5935 5934 5934 5935 5934 5934
5882 5882 5881 5881 5881 5881 5882 5885 5889 5894 5897 5897 5902 5904 5906 5908 5908 5910 5912 5914 5916 5917 5917 5917 5918 5919 5920 5921 5923 5924 5925 5927 5929 5930 5931 5931 5932 5933 5933 5934 5934 5933 5933 5933 5932 5931 5931 5931 5931
5878 5877 5877 5876 5877 5877 5877 5877 5882 5886 5892 5891 5894 5898 5901 5903 5904 5905 5907 5908 5913 5915 5915 5914 5915 5916 5916 5918 5919 5920 5922 5923 5924 5926 5927 5927 5928 5929 5930 5931 5931 5931 5930 5930 5930 5929 5929 5929 5929
5873 5873 5873 5872 5871 5871 5871 5872 5873 5879 5881 5884 5888 5891 5894 5897 5899 5901 5903 5905 5907 5909 5909 5911 5913 5913 5914 5915 5915 5917 5918 5920 5922 5922 5923 5923 5924 5925 5926 5927 5927 5928 5928 5927 5926 5927 5926 5926 5926
5868 5868 5868 5867 5866 5866 5866 5866 5868 5871 5872 5878 5884 5885 5888 5892 5894 5897 5898 5900 5902 5904 5905 5907 5908 5909 5910 5911 5913 5913 5914 5916 5917 5918 5919 5920 5920 5920 5921 5922 5923 5924 5924 5923 5923 5923 5923 5922 5922
5862 5861 5862 5862 5861 5862 5862 5863 5864 5864 5866 5871 5876 5879 5881 5885 5889 5891 5893 5896 5898 5900 5901 5903 5904 5906 5906 5906 5907 5909 5909 5911 5912 5913 5914 5916 5916 5916 5916 5917 5918 5919 5919 5919 5919 5919 5919 5920 5918
5855 5855 5856 5856 5857 5856 5858 5859 5858 5858 5861 5864 5869 5872 5875 5877 5880 5883 5887 5890 5892 5894 5897 5898 5899 5901 5901 5901 5902 5903 5904 5905 5907 5908 5909 5910 5910 5912 5913 5913 5913 5914 5915 5915 5915 5915 5915 5915 5914
5848 5849 5849 5849 5851 5850 5853 5854 5853 5854 5856 5857 5860 5863 5867 5870 5872 5875 5878 5883 5885 5888 5891 5892 5894 5895 5896 5898 5898 5899 5900 5901 5901 5902 5902 5902 5904 5907 5908 5909 5909 5910 5911 5911 5911 5910 5910 5910 5911
5837 5841 5841 5842 5843 5844 5846 5848 5848 5848 5850 5850 5851 5854 5859 5861 5864 5867 5869 5872 5877 5880 5883 5885 5887 5888 5888 5890 5892 5892 5893 5893 5887 5887 5893 5894 5897 5901 5902 5904 5904 5906 5906 5907 5906 5905 5905 5905 5906
5829 5832 5834 5833 5833 5837 5838 5841 5842 5842 5843 5844 5844 5847 5849 5853 5856 5859 5861 5863 5866 5869 5873 5876 5879 5881 5882 5883 5885 5883 5886 5882 5876 5876 5880 5890 5891 5893 5894 5897 5899 5900 5900 5902 5902 5901 5900 5900 5901
5819 5822 5825 5825 5826 5829 5828 5832 5835 5835 5835 5837 5837 5839 5842 5844 5847 5850 5852 5855 5858 5859 5862 5866 5869 5872 5875 5876 5877 5876 5878 5877 5877 5876 5878 5883 5886 5887 5890 5889 5892 5892 5893 5895 5895 5895 5895 5895 5895
5810 5812 5814 5817 5817 5820 5821 5823 5825 5825 5827 5829 5830 5830 5833 5836 5838 5841 5843 5845 5848 5851 5854 5857 5860 5862 5866 5868 5870 5870 5871 5874 5874 5874 5872 5876 5877 5880 5882 5883 5885 5886 5885 5886 5887 5887 5887 5888 5889
5798 5802 5804 5806 5810 5812 5812 5818 5814 5815 5817 5818 5821 5823 5824 5826 5828 5830 5834 5835 5838 5840 5843 5846 5849 5852 5855 5859 5862 5864 5864 5867 5864 5863 5866 5866 5868 5868 5871 5872 5875 5877 5877 5878 5877 5878 5878 5879 5881
5789 5789 5794 5796 5799 5801 5802 5807 5812 5803 5807 5809 5810 5812 5814 5815 5818 5821 5823 5827 5828 5831 5833 5835 5838 5841 5844 5848 5850 5853 5855 5857 5857 5857 5859 5858 5856 5858 5861 5862 5864 5866 5864 5866 5867 5867 5867 5869 5871
5777 5780 5782 5785 5788 5789 5795 5794 5802 5795 5794 5799 5800 5802 5804 5806 5807 5811 5813 5816 5819 5821 5823 5825 5827 5830 5833 5836 5839 5841 5843 5845 5846 5847 5850 5849 5852 5850 5851 5852 5853 5854 5854 5855 5854 5856 5858 5859 5860
5766 5770 5773 5775 5776 5779 5784 5785 5789 5785 5783 5789 5790 5792 5793 5796 5799 5801 5803 5806 5809 5812 5814 5815 5817 5819 5821 5824 5827 5829 5831 5833 5834 5835 5838 5840 5841 5840 5841 5843 5843 5843 5844 5843 5844 5846 5846 5847 5849
5757 5761 5766 5769 5773 5776 5768 5770 5770 5772 5774 5778 5781 5782 5783 5785 5787 5790 5792 5795 5797 5801 5804 5805 5807 5808 5811 5813 5815 5818 5820 5821 5823 5824 5825 5828 5828 5830 5831 5831 5832 5833 5833 5833 5834 5833 5833 5835 5836
5747 5751 5751 5754 5757 5760 5764 5757 5758 5760 5764 5765 5769 5771 5773 5775 5776 5778 5781 5783 5785 5787 5790 5794 5796 5798 5800 5801 5804 5806 5807 5809 5811 5812 5815 5816 5819 5819 5821 5820 5823 5825 5825 5823 5821 5819 5820 5820 5823
5739 5742 5744 5743 5745 5747 5752 5751 5751 5747 5752 5754 5755 5758 5760 5761 5763 5765 5767 5769 5773 5775 5777 5779 5782 5785 5787 5789 5791 5794 5797 5799 5800 5802 5804 5805 5806 5808 5809 5809 5811 5810 5811 5810 5810 5809 5808 5809 5812
5731 5732 5734 5734 5735 5737 5739 5737 5737 5736 5739 5740 5742 5745 5747 5749 5750 5752 5753 5755 5757 5761 5763 5766 5768 5770 5773 5775 5777 5779 5782 5785 5787 5789 5792 5795 5796 5797 5798 5799 5800 5798 5801 5798 5795 5799 5800 5800 5802
5719 5721 5722 5723 5727 5725 5727 5728 5725 5725 5727 5728 5730 5732 5734 5736 5738 5738 5739 5740 5742 5744 5747 5750 5753 5754 5758 5761 5763 5765 5766 5768 5771 5773 5776 5780 5783 5785 5787 5789 5791 5788 5787 5785 5785 5787 5791 5792 5793